Wetterdaten: Montag, 04.01.2010
Datum Zeit Temp. A. Feuchte A. Luftdruck Regen Wind Richtung Richtung Sonnenschein UV Solar Windben
04.01.2010 00:00 -4,0 C 89 % 1020,9 hPa 0,0 mm 1,6 km/h (1 Bft) N-NO 22 0 min 0 UV-I 0 W/m 4,8 km/h (1 Bft)
04.01.2010 00:10 -4,0 C 89 % 1020,9 hPa 0,0 mm 1,6 km/h (1 Bft) N-NO 22 0 min 0 UV-I 0 W/m 6,4 km/h (2 Bft)
04.01.2010 00:20 -4,1 C 89 % 1020,7 hPa 0,0 mm 0,0 km/h (0 Bft) N-NO 22 0 min 0 UV-I 0 W/m 3,2 km/h (1 Bft)
04.01.2010 00:30 -4,1 C 89 % 1020,7 hPa 0,0 mm 1,6 km/h (1 Bft) N-NO 22 0 min 0 UV-I 0 W/m 4,8 km/h (1 Bft)
04.01.2010 00:40 -4,1 C 89 % 1020,6 hPa 0,0 mm 1,6 km/h (1 Bft) N-NO 22 0 min 0 UV-I 0 W/m 6,4 km/h (2 Bft)
04.01.2010 00:50 -4,1 C 89 % 1020,7 hPa 0,0 mm 0,0 km/h (0 Bft) N-NO 22 0 min 0 UV-I 0 W/m 4,8 km/h (1 Bft)
04.01.2010 01:00 -4,2 C 89 % 1020,6 hPa 0,0 mm 0,0 km/h (0 Bft) N-NO 22 0 min 0 UV-I 0 W/m 4,8 km/h (1 Bft)
04.01.2010 01:10 -4,2 C 89 % 1020,5 hPa 0,0 mm 0,0 km/h (0 Bft) N-NO 22 0 min 0 UV-I 0 W/m 4,8 km/h (1 Bft)
04.01.2010 01:20 -4,2 C 89 % 1020,4 hPa 0,0 mm 1,6 km/h (1 Bft) N-NO 22 0 min 0 UV-I 0 W/m 8,0 km/h (2 Bft)
04.01.2010 01:30 -4,2 C 89 % 1020,2 hPa 0,0 mm 1,6 km/h (1 Bft) N 360 0 min 0 UV-I 0 W/m 8,0 km/h (2 Bft)
04.01.2010 01:40 -4,3 C 89 % 1020,1 hPa 0,0 mm 0,0 km/h (0 Bft) N 360 0 min 0 UV-I 0 W/m 1,6 km/h (1 Bft)
04.01.2010 01:50 -4,3 C 89 % 1020,0 hPa 0,0 mm 1,6 km/h (1 Bft) N 360 0 min 0 UV-I 0 W/m 4,8 km/h (1 Bft)
04.01.2010 02:00 -4,3 C 89 % 1019,9 hPa 0,0 mm 1,6 km/h (1 Bft) N-NO 22 0 min 0 UV-I 0 W/m 4,8 km/h (1 Bft)
04.01.2010 02:10 -4,3 C 89 % 1020,0 hPa 0,0 mm 0,0 km/h (0 Bft) N-NO 22 0 min 0 UV-I 0 W/m 4,8 km/h (1 Bft)
04.01.2010 02:20 -4,3 C 89 % 1020,0 hPa 0,0 mm 0,0 km/h (0 Bft) O-NO 67 0 min 0 UV-I 0 W/m 4,8 km/h (1 Bft)
04.01.2010 02:30 -4,3 C 89 % 1020,0 hPa 0,0 mm 0,0 km/h (0 Bft) O-NO 67 0 min 0 UV-I 0 W/m 3,2 km/h (1 Bft)
04.01.2010 02:40 -4,3 C 89 % 1019,9 hPa 0,0 mm 0,0 km/h (0 Bft) O-NO 67 0 min 0 UV-I 0 W/m 3,2 km/h (1 Bft)
04.01.2010 02:50 -4,3 C 89 % 1019,9 hPa 0,0 mm 0,0 km/h (0 Bft) O-NO 67 0 min 0 UV-I 0 W/m 1,6 km/h (1 Bft)
04.01.2010 03:00 -4,3 C 89 % 1019,9 hPa 0,0 mm 0,0 km/h (0 Bft) O-NO 67 0 min 0 UV-I 0 W/m 3,2 km/h (1 Bft)
04.01.2010 03:10 -4,3 C 89 % 1019,8 hPa 0,0 mm 0,0 km/h (0 Bft) O-NO 67 0 min 0 UV-I 0 W/m 3,2 km/h (1 Bft)
04.01.2010 03:20 -4,3 C 89 % 1019,7 hPa 0,0 mm 0,0 km/h (0 Bft) N 0 0 min 0 UV-I 0 W/m 0,0 km/h (0 Bft)
04.01.2010 03:30 -4,3 C 89 % 1019,7 hPa 0,0 mm 0,0 km/h (0 Bft) N 0 0 min 0 UV-I 0 W/m 0,0 km/h (0 Bft)
04.01.2010 03:40 -4,4 C 89 % 1019,6 hPa 0,0 mm 0,0 km/h (0 Bft) O-NO 67 0 min 0 UV-I 0 W/m 1,6 km/h (1 Bft)
04.01.2010 03:50 -4,4 C 89 % 1019,5 hPa 0,0 mm 0,0 km/h (0 Bft) O-NO 67 0 min 0 UV-I 0 W/m 3,2 km/h (1 Bft)
04.01.2010 04:00 -4,4 C 89 % 1019,6 hPa 0,0 mm 0,0 km/h (0 Bft) O-NO 67 0 min 0 UV-I 0 W/m 6,4 km/h (2 Bft)
04.01.2010 04:10 -4,4 C 89 % 1019,4 hPa 0,0 mm 0,0 km/h (0 Bft) W 270 0 min 0 UV-I 0 W/m 1,6 km/h (1 Bft)
04.01.2010 04:20 -4,4 C 89 % 1019,3 hPa 0,0 mm 0,0 km/h (0 Bft) W 270 0 min 0 UV-I 0 W/m 1,6 km/h (1 Bft)
04.01.2010 04:30 -4,4 C 89 % 1019,3 hPa 0,0 mm 0,0 km/h (0 Bft) W 270 0 min 0 UV-I 0 W/m 3,2 km/h (1 Bft)
04.01.2010 04:40 -4,4 C 89 % 1019,2 hPa 0,0 mm 0,0 km/h (0 Bft) W 270 0 min 0 UV-I 0 W/m 3,2 km/h (1 Bft)
04.01.2010 04:50 -4,4 C 89 % 1019,1 hPa 0,0 mm 0,0 km/h (0 Bft) W 270 0 min 0 UV-I 0 W/m 3,2 km/h (1 Bft)
04.01.2010 05:00 -4,4 C 89 % 1019,1 hPa 0,0 mm 0,0 km/h (0 Bft) W-NW 292 0 min 0 UV-I 0 W/m 4,8 km/h (1 Bft)
04.01.2010 05:10 -4,4 C 89 % 1018,9 hPa 0,0 mm 0,0 km/h (0 Bft) W-NW 292 0 min 0 UV-I 0 W/m 1,6 km/h (1 Bft)
04.01.2010 05:20 -4,4 C 89 % 1018,9 hPa 0,0 mm 0,0 km/h (0 Bft) NW 315 0 min 0 UV-I 0 W/m 3,2 km/h (1 Bft)
04.01.2010 05:30 -4,4 C 89 % 1019,0 hPa 0,0 mm 0,0 km/h (0 Bft) NW 315 0 min 0 UV-I 0 W/m 4,8 km/h (1 Bft)
04.01.2010 05:40 -4,5 C 89 % 1019,0 hPa 0,0 mm 0,0 km/h (0 Bft) NW 315 0 min 0 UV-I 0 W/m 1,6 km/h (1 Bft)
04.01.2010 05:50 -4,5 C 88 % 1018,9 hPa 0,0 mm 0,0 km/h (0 Bft) NW 315 0 min 0 UV-I 0 W/m 3,2 km/h (1 Bft)
04.01.2010 06:00 -4,5 C 88 % 1018,9 hPa 0,0 mm 0,0 km/h (0 Bft) NW 315 0 min 0 UV-I 0 W/m 3,2 km/h (1 Bft)
04.01.2010 06:10 -4,6 C 88 % 1018,8 hPa 0,0 mm 0,0 km/h (0 Bft) NW 315 0 min 0 UV-I 0 W/m 3,2 km/h (1 Bft)
04.01.2010 06:20 -4,6 C 88 % 1018,9 hPa 0,0 mm 0,0 km/h (0 Bft) W-NW 292 0 min 0 UV-I 0 W/m 4,8 km/h (1 Bft)
04.01.2010 06:30 -4,7 C 88 % 1018,9 hPa 0,0 mm 1,6 km/h (1 Bft) W-NW 292 0 min 0 UV-I 0 W/m 4,8 km/h (1 Bft)
04.01.2010 06:40 -4,7 C 88 % 1018,9 hPa 0,0 mm 0,0 km/h (0 Bft) W-NW 292 0 min 0 UV-I 0 W/m 3,2 km/h (1 Bft)
04.01.2010 06:50 -4,7 C 88 % 1018,8 hPa 0,0 mm 0,0 km/h (0 Bft) W 270 0 min 0 UV-I 0 W/m 4,8 km/h (1 Bft)
04.01.2010 07:00 -4,7 C 88 % 1018,7 hPa 0,0 mm 0,0 km/h (0 Bft) W 270 0 min 0 UV-I 0 W/m 1,6 km/h (1 Bft)
04.01.2010 07:10 -4,7 C 88 % 1018,7 hPa 0,0 mm 0,0 km/h (0 Bft) W 270 0 min 0 UV-I 0 W/m 3,2 km/h (1 Bft)
04.01.2010 07:20 -4,7 C 88 % 1018,7 hPa 0,0 mm 0,0 km/h (0 Bft) W 270 0 min 0 UV-I 0 W/m 3,2 km/h (1 Bft)
04.01.2010 07:30 -4,7 C 87 % 1018,5 hPa 0,0 mm 1,6 km/h (1 Bft) W 270 0 min 0 UV-I 0 W/m 4,8 km/h (1 Bft)
04.01.2010 07:40 -4,7 C 87 % 1018,5 hPa 0,0 mm 0,0 km/h (0 Bft) W 270 0 min 0 UV-I 0 W/m 4,8 km/h (1 Bft)
04.01.2010 07:50 -4,7 C 87 % 1018,5 hPa 0,0 mm 0,0 km/h (0 Bft) W 270 0 min 0 UV-I 0 W/m 3,2 km/h (1 Bft)
04.01.2010 08:00 -4,7 C 87 % 1018,4 hPa 0,0 mm 0,9 km/h (0 Bft) W-NW 287 0 min 0 UV-I 0 W/m 4,8 km/h (1 Bft)
04.01.2010 08:10 -4,8 C 87 % 1018,3 hPa 0,0 mm 0,0 km/h (0 Bft) W-NW 292 0 min 0 UV-I 0 W/m 4,8 km/h (1 Bft)
04.01.2010 08:20 -4,8 C 87 % 1018,2 hPa 0,0 mm 0,0 km/h (0 Bft) W-NW 292 0 min 0 UV-I 0 W/m 3,2 km/h (1 Bft)
04.01.2010 08:30 -4,8 C 87 % 1018,1 hPa 0,0 mm 0,0 km/h (0 Bft) W-NW 292 0 min 0 UV-I 0 W/m 1,6 km/h (1 Bft)
04.01.2010 08:40 -4,9 C 87 % 1018,0 hPa 0,0 mm 0,0 km/h (0 Bft) W-NW 292 0 min 0 UV-I 9 W/m 1,6 km/h (1 Bft)
04.01.2010 08:50 -5,1 C 87 % 1017,9 hPa 0,0 mm 0,0 km/h (0 Bft) W-NW 292 0 min 0 UV-I 12 W/m 1,6 km/h (1 Bft)
04.01.2010 09:00 -5,1 C 87 % 1018,1 hPa 0,0 mm 0,0 km/h (0 Bft) W-NW 292 0 min 0 UV-I 21 W/m 1,6 km/h (1 Bft)
04.01.2010 09:10 -5,2 C 87 % 1018,0 hPa 0,0 mm 0,0 km/h (0 Bft) W-NW 292 0 min 0 UV-I 28 W/m 1,6 km/h (1 Bft)
04.01.2010 09:20 -5,3 C 86 % 1018,1 hPa 0,0 mm 0,0 km/h (0 Bft) W-NW 292 0 min 0 UV-I 28 W/m 1,6 km/h (1 Bft)
04.01.2010 09:30 -5,3 C 86 % 1018,0 hPa 0,0 mm 0,0 km/h (0 Bft) W-NW 292 0 min 0 UV-I 30 W/m 1,6 km/h (1 Bft)
04.01.2010 09:40 -5,3 C 87 % 1017,8 hPa 0,0 mm 0,0 km/h (0 Bft) N 0 0 min 0 UV-I 44 W/m 0,0 km/h (0 Bft)
04.01.2010 09:50 -5,4 C 87 % 1017,8 hPa 0,0 mm 0,0 km/h (0 Bft) N 0 0 min 0 UV-I 53 W/m 0,0 km/h (0 Bft)
04.01.2010 10:00 -5,4 C 87 % 1017,8 hPa 0,0 mm 0,0 km/h (0 Bft) W-NW 292 0 min 0 UV-I 51 W/m 1,6 km/h (1 Bft)
04.01.2010 10:10 -5,3 C 87 % 1017,9 hPa 0,0 mm 0,0 km/h (0 Bft) N 0 0 min 0 UV-I 53 W/m 0,0 km/h (0 Bft)
04.01.2010 10:20 -5,3 C 87 % 1017,8 hPa 0,0 mm 0,0 km/h (0 Bft) W-NW 292 0 min 0 UV-I 54 W/m 1,6 km/h (1 Bft)
04.01.2010 10:30 -5,3 C 87 % 1017,8 hPa 0,0 mm 0,0 km/h (0 Bft) W-NW 292 0 min 0 UV-I 79 W/m 1,6 km/h (1 Bft)
04.01.2010 10:40 -5,2 C 87 % 1017,8 hPa 0,0 mm 0,0 km/h (0 Bft) W-NW 292 0 min 0 UV-I 84 W/m 1,6 km/h (1 Bft)
04.01.2010 10:50 -5,2 C 87 % 1017,7 hPa 0,0 mm 0,0 km/h (0 Bft) W-NW 292 0 min 0 UV-I 56 W/m 1,6 km/h (1 Bft)
04.01.2010 11:00 -5,1 C 87 % 1017,7 hPa 0,0 mm 0,0 km/h (0 Bft) W-NW 292 0 min 0 UV-I 56 W/m 1,6 km/h (1 Bft)
04.01.2010 11:10 -5,1 C 87 % 1017,6 hPa 0,0 mm 0,0 km/h (0 Bft) W-NW 292 0 min 0 UV-I 79 W/m 1,6 km/h (1 Bft)
04.01.2010 11:20 -5,1 C 87 % 1017,5 hPa 0,0 mm 0,0 km/h (0 Bft) W-NW 292 0 min 0 UV-I 102 W/m 3,2 km/h (1 Bft)
04.01.2010 11:30 -5,0 C 87 % 1017,4 hPa 0,0 mm 0,0 km/h (0 Bft) W-NW 292 0 min 0 UV-I 90 W/m 3,2 km/h (1 Bft)
04.01.2010 11:40 -4,9 C 87 % 1017,3 hPa 0,0 mm 1,6 km/h (1 Bft) SW 225 0 min 0 UV-I 83 W/m 4,8 km/h (1 Bft)
04.01.2010 11:50 -4,8 C 87 % 1017,1 hPa 0,0 mm 0,0 km/h (0 Bft) SW 225 0 min 1 UV-I 111 W/m 4,8 km/h (1 Bft)
04.01.2010 12:00 -4,7 C 87 % 1017,0 hPa 0,0 mm 1,6 km/h (1 Bft) W-SW 247 0 min 1 UV-I 109 W/m 6,4 km/h (2 Bft)
04.01.2010 12:10 -4,7 C 87 % 1016,9 hPa 0,0 mm 0,0 km/h (0 Bft) SW 225 0 min 1 UV-I 149 W/m 4,8 km/h (1 Bft)
04.01.2010 12:20 -4,5 C 87 % 1016,8 hPa 0,0 mm 0,0 km/h (0 Bft) SW 225 0 min 1 UV-I 146 W/m 3,2 km/h (1 Bft)
04.01.2010 12:30 -4,3 C 85 % 1016,5 hPa 0,0 mm 0,0 km/h (0 Bft) SW 225 10 min 1 UV-I 167 W/m 4,8 km/h (1 Bft)
04.01.2010 12:40 -4,5 C 85 % 1016,3 hPa 0,0 mm 1,6 km/h (1 Bft) S-SW 202 10 min 1 UV-I 160 W/m 6,4 km/h (2 Bft)
04.01.2010 12:50 -4,6 C 84 % 1016,1 hPa 0,0 mm 1,6 km/h (1 Bft) W 270 10 min 1 UV-I 163 W/m 4,8 km/h (1 Bft)
04.01.2010 13:00 -4,4 C 84 % 1016,0 hPa 0,0 mm 1,6 km/h (1 Bft) W-SW 247 10 min 1 UV-I 169 W/m 4,8 km/h (1 Bft)
04.01.2010 13:10 -4,4 C 84 % 1015,9 hPa 0,0 mm 1,6 km/h (1 Bft) W-SW 247 10 min 1 UV-I 221 W/m 4,8 km/h (1 Bft)
04.01.2010 13:20 -4,4 C 84 % 1015,7 hPa 0,0 mm 1,6 km/h (1 Bft) W-SW 247 10 min 1 UV-I 250 W/m 6,4 km/h (2 Bft)
04.01.2010 13:30 -4,4 C 83 % 1015,7 hPa 0,0 mm 1,6 km/h (1 Bft) SW 225 10 min 1 UV-I 246 W/m 4,8 km/h (1 Bft)
04.01.2010 13:40 -4,4 C 84 % 1015,6 hPa 0,0 mm 1,6 km/h (1 Bft) SW 225 10 min 1 UV-I 239 W/m 4,8 km/h (1 Bft)
04.01.2010 13:50 -4,4 C 83 % 1015,4 hPa 0,0 mm 1,6 km/h (1 Bft) SW 225 10 min 1 UV-I 178 W/m 4,8 km/h (1 Bft)
04.01.2010 14:00 -4,4 C 84 % 1015,2 hPa 0,0 mm 0,0 km/h (0 Bft) SW 225 0 min 0 UV-I 97 W/m 4,8 km/h (1 Bft)
04.01.2010 14:10 -4,3 C 84 % 1015,2 hPa 0,0 mm 0,0 km/h (0 Bft) SW 225 0 min 0 UV-I 116 W/m 3,2 km/h (1 Bft)
04.01.2010 14:20 -4,2 C 84 % 1015,1 hPa 0,0 mm 0,0 km/h (0 Bft) SW 225 10 min 0 UV-I 137 W/m 1,6 km/h (1 Bft)
04.01.2010 14:30 -4,0 C 84 % 1014,9 hPa 0,3 mm 0,0 km/h (0 Bft) SW 225 10 min 0 UV-I 111 W/m 4,8 km/h (1 Bft)
04.01.2010 14:40 -3,8 C 84 % 1014,8 hPa 0,0 mm 0,0 km/h (0 Bft) SW 225 0 min 0 UV-I 86 W/m 4,8 km/h (1 Bft)
04.01.2010 14:50 -3,7 C 84 % 1014,9 hPa 0,0 mm 0,0 km/h (0 Bft) SW 225 0 min 0 UV-I 77 W/m 4,8 km/h (1 Bft)
04.01.2010 15:00 -3,7 C 84 % 1014,8 hPa 0,0 mm 0,0 km/h (0 Bft) S-SW 202 0 min 0 UV-I 47 W/m 4,8 km/h (1 Bft)
04.01.2010 15:10 -3,7 C 84 % 1014,6 hPa 0,0 mm 0,0 km/h (0 Bft) S-SW 202 0 min 0 UV-I 47 W/m 4,8 km/h (1 Bft)
04.01.2010 15:20 -3,7 C 84 % 1014,5 hPa 0,0 mm 0,0 km/h (0 Bft) S-SW 202 0 min 0 UV-I 47 W/m 4,8 km/h (1 Bft)
04.01.2010 15:30 -3,7 C 84 % 1014,5 hPa 0,0 mm 0,0 km/h (0 Bft) S-SW 202 0 min 0 UV-I 32 W/m 3,2 km/h (1 Bft)
04.01.2010 15:40 -3,7 C 83 % 1014,5 hPa 0,0 mm 0,0 km/h (0 Bft) S-SW 202 0 min 0 UV-I 28 W/m 4,8 km/h (1 Bft)
04.01.2010 15:50 -3,7 C 83 % 1014,4 hPa 0,0 mm 0,0 km/h (0 Bft) S-SW 202 0 min 0 UV-I 23 W/m 4,8 km/h (1 Bft)
04.01.2010 16:00 -3,8 C 83 % 1014,4 hPa 0,0 mm 0,4 km/h (0 Bft) S-SW 210 0 min 0 UV-I 13 W/m 1,6 km/h (1 Bft)
04.01.2010 16:10 -3,8 C 83 % 1014,2 hPa 0,0 mm 0,0 km/h (0 Bft) S-SW 202 0 min 0 UV-I 11 W/m 3,2 km/h (1 Bft)
04.01.2010 16:20 -3,9 C 84 % 1014,2 hPa 0,0 mm 0,0 km/h (0 Bft) S-SW 202 0 min 0 UV-I 5 W/m 1,6 km/h (1 Bft)
04.01.2010 16:30 -3,9 C 84 % 1014,0 hPa 0,0 mm 0,0 km/h (0 Bft) S-SW 202 0 min 0 UV-I 0 W/m 1,6 km/h (1 Bft)
04.01.2010 16:40 -4,0 C 84 % 1014,1 hPa 0,0 mm 0,0 km/h (0 Bft) S-SW 202 0 min 0 UV-I 0 W/m 1,6 km/h (1 Bft)
04.01.2010 16:50 -4,0 C 84 % 1014,0 hPa 0,0 mm 0,0 km/h (0 Bft) S-SW 202 0 min 0 UV-I 0 W/m 1,6 km/h (1 Bft)
04.01.2010 17:00 -4,1 C 84 % 1013,9 hPa 0,0 mm 0,0 km/h (0 Bft) S-SW 202 0 min 0 UV-I 0 W/m 3,2 km/h (1 Bft)
04.01.2010 17:10 -4,1 C 84 % 1013,7 hPa 0,0 mm 0,0 km/h (0 Bft) S-SW 202 0 min 0 UV-I 0 W/m 6,4 km/h (2 Bft)
04.01.2010 17:20 -4,1 C 85 % 1013,7 hPa 0,0 mm 0,0 km/h (0 Bft) S-SW 202 0 min 0 UV-I 0 W/m 3,2 km/h (1 Bft)
04.01.2010 17:30 -4,1 C 85 % 1013,6 hPa 0,0 mm 0,0 km/h (0 Bft) S-SW 202 0 min 0 UV-I 0 W/m 3,2 km/h (1 Bft)
04.01.2010 17:40 -4,1 C 85 % 1013,4 hPa 0,0 mm 1,6 km/h (1 Bft) S-SW 202 0 min 0 UV-I 0 W/m 4,8 km/h (1 Bft)
04.01.2010 17:50 -4,2 C 85 % 1013,2 hPa 0,0 mm 1,6 km/h (1 Bft) S 180 0 min 0 UV-I 0 W/m 4,8 km/h (1 Bft)
04.01.2010 18:00 -4,2 C 85 % 1013,3 hPa 0,0 mm 1,6 km/h (1 Bft) S-SO 157 0 min 0 UV-I 0 W/m 4,8 km/h (1 Bft)
04.01.2010 18:10 -4,2 C 85 % 1013,1 hPa 0,0 mm 1,6 km/h (1 Bft) S-SO 157 0 min 0 UV-I 0 W/m 4,8 km/h (1 Bft)
04.01.2010 18:20 -4,2 C 86 % 1013,2 hPa 0,0 mm 0,0 km/h (0 Bft) S-SO 157 0 min 0 UV-I 0 W/m 6,4 km/h (2 Bft)
04.01.2010 18:30 -4,3 C 86 % 1013,2 hPa 0,0 mm 0,0 km/h (0 Bft) S-SO 157 0 min 0 UV-I 0 W/m 4,8 km/h (1 Bft)
04.01.2010 18:40 -4,3 C 86 % 1013,1 hPa 0,0 mm 0,0 km/h (0 Bft) S-SO 157 0 min 0 UV-I 0 W/m 4,8 km/h (1 Bft)
04.01.2010 18:50 -4,3 C 86 % 1013,1 hPa 0,0 mm 0,0 km/h (0 Bft) S-SO 157 0 min 0 UV-I 0 W/m 3,2 km/h (1 Bft)
04.01.2010 19:00 -4,3 C 86 % 1013,1 hPa 0,0 mm 0,0 km/h (0 Bft) S-SO 157 0 min 0 UV-I 0 W/m 1,6 km/h (1 Bft)
04.01.2010 19:10 -4,3 C 86 % 1013,0 hPa 0,0 mm 1,6 km/h (1 Bft) S-SO 157 0 min 0 UV-I 0 W/m 4,8 km/h (1 Bft)
04.01.2010 19:20 -4,3 C 86 % 1012,7 hPa 0,0 mm 1,6 km/h (1 Bft) S 180 0 min 0 UV-I 0 W/m 4,8 km/h (1 Bft)
04.01.2010 19:30 -4,3 C 86 % 1012,7 hPa 0,0 mm 0,0 km/h (0 Bft) S 180 0 min 0 UV-I 0 W/m 3,2 km/h (1 Bft)
04.01.2010 19:40 -4,3 C 86 % 1012,8 hPa 0,0 mm 0,0 km/h (0 Bft) S 180 0 min 0 UV-I 0 W/m 1,6 km/h (1 Bft)
04.01.2010 19:50 -4,3 C 86 % 1012,7 hPa 0,0 mm 0,1 km/h (0 Bft) S 172 0 min 0 UV-I 0 W/m 1,6 km/h (1 Bft)
04.01.2010 20:00 -4,3 C 87 % 1012,6 hPa 0,0 mm 0,1 km/h (0 Bft) S 173 0 min 0 UV-I 0 W/m 1,6 km/h (1 Bft)
04.01.2010 20:10 -4,3 C 87 % 1012,7 hPa 0,0 mm 0,1 km/h (0 Bft) S 173 0 min 0 UV-I 0 W/m 1,6 km/h (1 Bft)
04.01.2010 20:20 -4,3 C 87 % 1012,6 hPa 0,0 mm 0,0 km/h (0 Bft) S 173 0 min 0 UV-I 0 W/m 0,0 km/h (0 Bft)
04.01.2010 20:30 -4,3 C 87 % 1012,6 hPa 0,0 mm 0,1 km/h (0 Bft) S 172 0 min 0 UV-I 0 W/m 1,6 km/h (1 Bft)
04.01.2010 20:40 -4,4 C 87 % 1012,6 hPa 0,0 mm 0,4 km/h (0 Bft) S 175 0 min 0 UV-I 0 W/m 3,2 km/h (1 Bft)
04.01.2010 20:50 -4,4 C 86 % 1012,5 hPa 0,0 mm 0,1 km/h (0 Bft) S 175 0 min 0 UV-I 0 W/m 1,6 km/h (1 Bft)
04.01.2010 21:00 -4,3 C 86 % 1012,5 hPa 0,0 mm 0,2 km/h (0 Bft) S 175 0 min 0 UV-I 0 W/m 3,2 km/h (1 Bft)
04.01.2010 21:10 -4,3 C 87 % 1012,4 hPa 0,0 mm 0,1 km/h (0 Bft) S 175 0 min 0 UV-I 0 W/m 3,2 km/h (1 Bft)
04.01.2010 21:20 -4,3 C 87 % 1012,2 hPa 0,0 mm 0,8 km/h (0 Bft) S-SO 168 0 min 0 UV-I 0 W/m 4,8 km/h (1 Bft)
04.01.2010 21:30 -4,3 C 86 % 1012,2 hPa 0,0 mm 1,4 km/h (1 Bft) SO 137 0 min 0 UV-I 0 W/m 8,0 km/h (2 Bft)
04.01.2010 21:40 -4,3 C 87 % 1012,2 hPa 0,0 mm 1,0 km/h (0 Bft) S-SO 150 0 min 0 UV-I 0 W/m 4,8 km/h (1 Bft)
04.01.2010 21:50 -4,3 C 87 % 1012,2 hPa 0,0 mm 0,6 km/h (0 Bft) S-SW 192 0 min 0 UV-I 0 W/m 4,8 km/h (1 Bft)
04.01.2010 22:00 -4,3 C 87 % 1012,1 hPa 0,0 mm 0,7 km/h (0 Bft) S-SW 195 0 min 0 UV-I 0 W/m 4,8 km/h (1 Bft)
04.01.2010 22:10 -4,3 C 87 % 1012,1 hPa 0,0 mm 0,4 km/h (0 Bft) S-SW 195 0 min 0 UV-I 0 W/m 3,2 km/h (1 Bft)
04.01.2010 22:20 -4,3 C 86 % 1012,1 hPa 0,0 mm 0,2 km/h (0 Bft) S-SW 195 0 min 0 UV-I 0 W/m 3,2 km/h (1 Bft)
04.01.2010 22:30 -4,3 C 87 % 1011,8 hPa 0,0 mm 0,2 km/h (0 Bft) S-SW 195 0 min 0 UV-I 0 W/m 3,2 km/h (1 Bft)
04.01.2010 22:40 -4,2 C 87 % 1011,8 hPa 0,0 mm 0,3 km/h (0 Bft) S-SW 195 0 min 0 UV-I 0 W/m 4,8 km/h (1 Bft)
04.01.2010 22:50 -4,2 C 87 % 1011,6 hPa 0,0 mm 0,0 km/h (0 Bft) S-SW 202 0 min 0 UV-I 0 W/m 3,2 km/h (1 Bft)
04.01.2010 23:00 -4,2 C 87 % 1011,6 hPa 0,0 mm 0,0 km/h (0 Bft) S-SW 202 0 min 0 UV-I 0 W/m 3,2 km/h (1 Bft)
04.01.2010 23:10 -4,1 C 87 % 1011,6 hPa 0,0 mm 0,0 km/h (0 Bft) S-SW 202 0 min 0 UV-I 0 W/m 1,6 km/h (1 Bft)
04.01.2010 23:20 -4,1 C 87 % 1011,6 hPa 0,0 mm 0,0 km/h (0 Bft) S-SW 202 0 min 0 UV-I 0 W/m 3,2 km/h (1 Bft)
04.01.2010 23:30 -4,1 C 87 % 1011,4 hPa 0,0 mm 0,0 km/h (0 Bft) S-SW 202 0 min 0 UV-I 0 W/m 3,2 km/h (1 Bft)
04.01.2010 23:40 -4,0 C 87 % 1011,5 hPa 0,0 mm 0,0 km/h (0 Bft) S-SW 202 0 min 0 UV-I 0 W/m 1,6 km/h (1 Bft)
04.01.2010 23:50 -3,9 C 87 % 1011,3 hPa 0,0 mm 0,0 km/h (0 Bft) S-SW 202 0 min 0 UV-I 0 W/m 1,6 km/h (1 Bft)
_ Min-Zeit 09:40 13:30 23:50 - 00:20 - - - - - 03:20
Minimum _ -5,4 C 83 % 1011,3 hPa - 0,0 km/h (0 Bft) - - - - - 0,0 km/h (0 Bft)
_ Max-Zeit 14:50 00:00 00:00 14:30 00:00 - - 12:30 11:50 13:20 01:20
Maximum _ -3,7 C 89 % 1020,9 hPa 0,3 mm 1,6 km/h
N-NO (1 Bft)
- - 10 min 1 UV-I 250 W/m 8,0 km/h
N-NO (2 Bft)
Durchschnitt _ -4,4 C 87 % 1016,3 hPa #0,3 mm 0,3 km/h (0 Bft) N-NO - #1:50 h 1 UV-I 89 W/m 3,5 km/h (1 Bft)